Regional Weather Roundup
Issued by NWS Mt. Holly, NJ

Home | Current Version | Previous Version | Text Only | Print | Product List | Glossary On
Versions: 1 2 3 4 5 6 7 8 9 10 11 12 13 14 15 16 17 18 19 20 21 22 23 24 25 26 27
000
ASUS41 KPHI 222212
RWRPHI

REGIONAL WEATHER ROUNDUP
NATIONAL WEATHER SERVICE MOUNT HOLLY NJ
600 PM EDT FRI SEP 22 2017

NOTE:  "FAIR" INDICATES FEW OR NO CLOUDS BELOW 12,000 FEET WITH NO
SIGNIFICANT WEATHER AND/OR OBSTRUCTIONS TO VISIBILITY.

 * = STATION DOES NOT REPORT PRECIPITATION (E.G. RAIN, SNOW, ETC.)
        OR FOG.

NJZ015>026-222300-
SOUTHERN NEW JERSEY

CITY           SKY/WX    TMP DP  RH WIND       PRES   REMARKS
POMONA         PTCLDY    76  63  64 W9        29.94R
WILDWOOD*      MOSUNNY   74  64  71 NW5       29.96R
MILLVILLE      PTSUNNY   77  64  64 W7        29.95S
WRIGHTSTOWN    CLEAR     80  61  51 NW9       29.91S
MOUNT HOLLY    CLOUDY    80  60  50 N8        29.93S
TRENTON        CLEAR     81  59  47 N8        29.94S

$$
NJZ001>014-222300-
NORTHERN NEW JERSEY

CITY           SKY/WX    TMP DP  RH WIND       PRES   REMARKS
SUSSEX         MOCLDY    80  58  46 NE7       29.98S
ANDOVER*         N/A     78  60  53 CALM      29.98S
MORRISTOWN     MOCLDY    79  57  47 NE8G25    29.96S
NEWARK         MOCLDY    82  57  42 N15       29.94R
TETERBORO      PTCLDY    81  57  43 N12G20    29.93S
CALDWELL       CLEAR     80  58  46 NE8       29.96S
ALLAIRE*       PTCLDY    81  60  48 N10       29.94S
TOMS RIVER*    CLEAR     80  62  54 NW6       29.93S

$$
PAZ043-044-047-054-055-060>062-066>071-222300-
EASTERN PENNSYLVANIA

CITY           SKY/WX    TMP DP  RH WIND       PRES   REMARKS
PHILADELPHIA   PTSUNNY   81  56  42 N8        29.95S
NORTH PHILA    CLEAR     82  58  43 N9        29.96S
BLUE BELL*     MOSUNNY   77  59  53 CALM      29.98S
DOYLESTOWN     SUNNY     80  57  45 N7        29.96S
QUAKERTOWN*    SUNNY     81  55  41 N3        29.99R
PERKASIE*      FAIR      75  64  69 CALM      29.99S
POTTSTOWN      MOSUNNY   76  58  53 NW5       29.99S
LANCASTER      CLOUDY    79  62  56 NW7       29.99S
COATESVILLE    PTSUNNY   75  55  50 NW6       30.01S
READING        MOSUNNY   79  57  46 NW6       29.98R
ALLENTOWN      SUNNY     80  57  45 N5        29.98S
MOUNT POCONO   SUNNY     73  44  35 N10       30.06R
HAZLETON       SUNNY     75  46  35 N6        30.08S
LEHIGHTON      FAIR      81  45  28 N5        30.00S
WILKES BARRE   SUNNY     80  50  34 N9        30.03F

$$
DEZALL-MDZ008-012-015-019-020-222300-
DELAWARE AND EASTERN MARYLAND

CITY           SKY/WX    TMP DP  RH WIND       PRES   REMARKS
WILMINGTON     MOSUNNY   78  63  59 NW5       29.96F
DOVER          MOSUNNY   76  74  94 W7        29.97S
GEORGETOWN     CLOUDY    78  64  61 N3        29.97S
EASTON         PTSUNNY   81  63  54 N5        30.02R
ABERDEEN       PTSUNNY   74  68  81 CALM      29.97F
PATUXENT       PTSUNNY   79  66  64 NW5       29.98R
OCEAN CITY     PTSUNNY   76  66  71 NW5       29.97R
WALLOPS ISLAND MOSUNNY   76  66  71 MISG      29.98R
CAMBRIDGE      SUNNY     81  68  65 N8        29.97S
SALISBURY      MOSUNNY   77  65  66 NW6       29.97R

$$
PAZ001-021-NYZ056-072-MDZ011-DCZ001-222300-
OTHER NEARBY LOCATIONS

CITY           SKY/WX    TMP DP  RH WIND       PRES   REMARKS
HARRISBURG     PTSUNNY   80  62  54 NW8       29.99S
STATE COLLEGE  SUNNY     81  54  39 NW5       30.06F
WILLIAMSPORT   SUNNY     84  57  39 NW7       30.00F
BINGHAMTON     SUNNY     73  51  46 N8        30.09S
NEW YORK CITY  MOCLDY    79  55  43 VRB7      29.97S
BALTIMORE      CLOUDY    77  65  66 CALM      29.98F
WASHINGTON DC  CLOUDY    81  66  60 NW10      29.99S

$$




USA.gov is the U.S. government's official web portal to all federal, state and local government web resources and services.